Regional Weather Roundup
Issued by NWS

Home | Current Version | Previous Version | Graphics & Text | Print | Product List | Glossary On
Versions: 1 2 3 4 5 6 7 8 9 10 11 12 13 14 15 16 17 18 19 20 21 22 23 24 25 26 27 28 29 30 31 32 33 34 35 36 37 38 39 40 41 42 43 44 45 46 47 48 49 50
000
ASUS44 KMEG 310810
RWRTN
TENNESSEE HOURLY STATE WEATHER ROUNDUP
NATIONAL WEATHER SERVICE MEMPHIS TN
200 AM CST SAT JAN 31 2015

TNZ002-004-019-021-049-052-054-088>092-310900-
WEST TENNESSEE

CITY           SKY/WX    TMP DP  RH WIND       PRES   REMARKS
MEMPHIS INTL   CLOUDY    38  24  57 E3        30.40S
NWS MEMPHIS      N/A     36 N/A N/A MISG        N/A
JACKSON        PTCLDY    30  23  75 CALM      30.40F
DYERSBURG      PTCLDY    30  12  47 E3        30.42F
UNION CITY     CLEAR     25  21  86 CALM      30.39F
PARIS          CLEAR     25  19  80 E5        30.40R WCI  19
LEXINGTON      CLEAR     25  19  80 CALM      30.38F
SAVANNAH       CLEAR     27  21  80 CALM      30.40S
$$

TNZ008-025-027-028-033-062-065-066-310900-
NORTH MIDDLE TENNESSEE

CITY           SKY/WX    TMP DP  RH WIND       PRES   REMARKS
NASHVILLE      PTCLDY    27  22  81 S3        30.41F
CLARKSVILLE    PTCLDY    25  21  85 CALM      30.41F
SMYRNA         CLEAR     23  21  92 CALM      30.43S
COOKEVILLE     CLEAR     18  18 100 CALM      30.38S
CROSSVILLE     CLEAR     25  16  68 CALM      30.35S
$$

TNZ061-075-076-078-094-096-097-310900-
SOUTH MIDDLE TENNESSEE

CITY           SKY/WX    TMP DP  RH WIND       PRES   REMARKS
FAYETTEVILLE   CLEAR     27  18  69 MISG      30.37F
TULLAHOMA      CLEAR     19  14  79 CALM      30.38R
WINCHESTER     CLEAR     19  18  93 CALM      30.39R
MCMINNVILLE    CLEAR     21  19  93 NE5       30.38S WCI  15
COLUMBIA       CLEAR    N/A N/A N/A CALM      30.39S
SHELBYVILLE    CLEAR     21  19  93 CALM      30.41S
$$

TNZ017-018-042-046-047-310900-
NORTHEAST TENNESSEE

CITY           SKY/WX    TMP DP  RH WIND       PRES   REMARKS
TRI CITIES     CLEAR     20  15  81 CALM      30.37S
ELIZABETHTON   SUNNY     18  12  79 CALM      30.35F
$$

TNZ012-013-036-069-073-074-310900-
CENTRAL EAST TENNESSEE

CITY           SKY/WX    TMP DP  RH WIND       PRES   REMARKS
KNOXVILLE      CLEAR     27  17  66 N6        30.39F WCI  20
OAK RIDGE      CLEAR     27  18  69 N3        30.41S
GATLINBURG     SUNNY     19  18  93 CALM      30.39F
MORRISTOWN     SUNNY     23  16  74 CALM      30.38S
$$

TNZ083-085-099-310900-
SOUTHEAST TENNESSEE

CITY           SKY/WX    TMP DP  RH WIND       PRES   REMARKS
CHATTANOOGA    CLEAR     31  21  66 N7        30.40S WCI  24
$$

SKY/WX REPORTED AS FAIR MEANS FEW OR NO CLOUDS BELOW
12 THOUSAND FEET.



USA.gov is the U.S. government's official web portal to all federal, state and local government web resources and services.